Location: Newark
(13.8117°N, 3.6025°W)
Time: 17:45:55
(UTC+00:00)

deb Explorer IX - Visible Passes

Search period start: 24 August 2019 00:00
Search period end: 03 September 2019 00:00
Orbit: 540 x 1110 km, 38.8° (Epoch: 23 August)

Date Brightness Start Highest point End Pass type
(mag) Time Alt. Az. Time Alt. Az. Time Alt. Az.
24 Aug ? 19:19:49 10° NW 19:27:14 88° SW 19:32:42 18° SE visible
24 Aug ? 21:09:41 10° W 21:14:06 18° SW 21:14:06 18° SW visible
25 Aug ? 18:57:39 10° NW 19:05:04 86° SW 19:12:09 10° SE visible
25 Aug ? 20:47:32 10° W 20:52:11 18° SW 20:53:46 17° SSW visible
26 Aug ? 20:25:25 10° W 20:30:03 18° SW 20:33:30 13° SSW visible
27 Aug ? 20:03:19 10° W 20:07:54 18° SW 20:12:22 10° S visible
28 Aug ? 19:41:13 10° W 19:45:45 17° SW 19:50:13 10° S visible
29 Aug ? 19:19:09 10° W 19:23:36 17° SW 19:28:01 10° S visible
30 Aug ? 18:57:06 10° W 19:01:27 17° SW 19:05:48 10° S visible
01 Sep ? 05:37:17 10° S 05:40:18 20° SE 05:43:21 10° E visible
02 Sep ? 05:15:15 10° S 05:18:22 21° SE 05:21:29 10° E visible
